Location: Saratoga Springs
(43.0831°N, 73.7850°W)
Time: 02:19:52
(UTC-04:00)

Vanguard 1 Rocket - Pass Details

Date: 13 April 2024
Orbit: 651 x 4220 km, 34.3° (Epoch: 17 May)

Event Time Altitude Azimuth Distance (km) Brightness Sun altitude
Rises 20:33:13 0° 226° (SW) 3,383 10.6 -10.7°
Reaches altitude 10° 20:35:29 10° 215° (SW) 2,674 9.9 -11.0°
Maximum altitude 20:41:11 34° 152° (SSE) 2,032 8.8 -12.0°
Enters shadow 20:49:53 12° 95° (E) 4,280 10.2 -13.4°
Drops below altitude 10° 20:50:52 10° 93° (E) 4,594 - -13.6°
Sets 20:56:09 0° 86° (E) 6,238 - -14.4°
